Cloud_Cover
0 0 0 50 19 65 9 18 100 100 100 100 81 100 100 88 5 8 100 97 59 100 100 100 100 100 80 79 100 13 17 28 0 0 19 16 0 5 4 3 0 0 0
0 0 20 100 27 11 100 100 100 100 100 100 100 100 100 57 18 78 100 57 99 100 100 100 100 100 76 31 6 6 5 6 14 4 7 27 5 6 23 12 0 0 0
0 0 46 94 57 60 21 100 100 100 100 100 100 100 100 100 100 100 100 100 100 100 100 100 100 99 5 5 18 71 30 6 56 100 97 99 64 1 0 0 0 0 0
3 5 17 0 5 5 17 72 100 100 100 100 100 100 100 100 100 100 100 100 100 100 100 100 100 27 22 3 5 48 38 90 97 100 93 80 44 22 29 19 13 12 15
0 15 16 0 0 1 2 2 100 100 100 100 100 100 100 100 100 100 100 100 100 100 95 63 14 5 5 21 100 100 100 100 100 100 54 38 1 19 4 2 58 22 2
0 1 15 31 5 5 5 2 99 100 100 100 100 100 100 100 100 100 100 100 100 6 6 14 5 6 1 27 100 100 100 100 100 100 99 35 63 37 19 74 71 1 0
4 18 55 30 6 74 68 5 4 6 79 99 100 100 100 100 100 100 100 100 100 91 64 100 6 25 92 100 100 100 100 100 100 58 97 83 69 26 90 62 66 44 24
7 41 58 52 43 35 6 0 11 30 73 6 78 100 100 100 100 100 100 100 100 100 100 96 100 100 100 100 100 100 100 100 93 7 18 19 9 1 26 94 98 98 73
16 38 48 55 90 71 5 6 45 16 78 99 100 100 75 97 100 99 100 100 100 100 100 100 100 100 100 100 100 100 100 100 35 5 5 1 0 0 6 100 100 95 51
1 12 67 62 93 88 47 82 96 47 89 100 100 100 99 100 100 100 100 100 100 100 100 100 100 100 100 100 100 100 100 98 89 10 4 0 20 23 10 98 100 100 100
10 96 100 100 97 68 100 100 94 80 87 100 100 100 78 91 84 100 99 100 100 100 100 88 80 100 100 42 13 6 16 45 76 2 0 2 29 32 31 45 49 95 96
90 93 96 91 97 98 100 100 100 88 91 44 99 52 100 77 78 92 100 100 100 86 100 4 8 6 30 6 24 98 51 4 2 0 1 3 9 0 2 5 10 100 79
100 92 70 100 100 99 99 100 100 100 98 98 68 100 100 91 86 99 100 96 98 60 43 0 0 9 62 5 4 0 4 2 0 0 11 0 0 0 0 5 98 100 100
70 98 100 100 100 100 100 100 100 97 72 14 64 100 100 99 100 89 29 93 15 5 5 1 27 99 100 100 44 4 5 5 3 0 0 0 0 0 3 12 100 100 100
100 97 100 100 100 90 87 100 100 92 40 95 100 98 100 100 90 5 42 5 9 32 9 76 99 99 72 87 31 5 5 4 4 0 0 5 3 0 10 100 100 100 100
66 84 100 100 54 80 60 83 100 100 100 100 100 99 100 44 6 17 32 100 100 94 86 71 99 98 100 100 58 23 5 5 0 2 5 33 2 1 13 95 100 100 100
32 4 18 66 74 22 19 43 8 42 55 68 37 8 99 26 47 9 99 97 100 95 79 100 100 100 100 97 44 50 8 5 5 5 5 5 5 21 100 100 100 100 98
44 70 18 81 78 9 26 37 21 26 100 100 100 100 79 39 100 100 56 49 84 99 99 100 100 100 100 93 64 63 5 5 4 0 0 4 5 37 100 100 100 100 100
100 92 35 4 13 97 99 100 100 92 100 100 56 28 15 61 32 5 5 5 48 92 74 98 100 100 100 100 98 7 2 0 0 0 0 0 0 28 100 100 100 100 100
100 96 100 100 100 99 91 100 97 35 5 9 32 70 18 5 5 2 1 3 3 3 5 4 88 95 100 37 3 0 0 0 0 0 0 0 0 45 100 100 100 100 100
100 100 100 100 100 100 98 5 3 10 4 5 5 5 5 5 0 2 1 0 0 0 1 0 5 7 5 0 0 0 0 0 0 0 0 0 0 13 100 100 100 100 100
100 100 73 100 55 5 59 97 98 71 5 6 5 13 9 5 4 3 0 0 0 0 0 7 0 0 0 0 0 0 0 0 0 0 0 0 0 0 100 100 100 100 100
23 1 3 2 4 30 3 35 30 67 100 61 45 33 2 5 0 2 0 0 0 0 0 0 0 0 0 0 0 0 0 0 0 0 0 0 0 0 84 100 100 100 100
0 0 0 0 5 5 3 4 6 34 51 36 100 5 5 5 0 0 0 0 0 0 0 0 0 0 0 0 0 0 0 0 0 0 0 0 0 0 3 88 100 98 64
0 0 0 0 0 3 21 7 5 27 22 86 5 5 5 5 5 0 0 0 0 0 0 0 0 0 0 0 0 0 0 0 1 43 0 0 0 0 0 38 100 100 66
0 0 0 0 3 9 4 5 6 17 5 5 5 5 5 5 5 2 0 0 0 0 0 0 0 0 0 0 0 0 0 2 0 12 0 0 0 0 0 0 59 100 72